Regional Weather Roundup
Issued by NWS Portland, ME

Current Version | Previous Version | Text Only | Print | Product List | Glossary Off
Versions: 1 2 3 4 5 6 7 8 9 10 11 12 13 14 15 16 17 18 19 20 21 22 23 24 25 26 27 28 29 30 31 32 33 34 35 36 37 38 39 40 41 42 43 44 45 46 47 48 49 50
497 ASUS41 KGYX 190605 RWRGYX WEATHER ROUNDUP FOR MAINE AND NEW HAMPSHIRE NATIONAL WEATHER SERVICE GRAY ME 200 AM EDT TUE SEP 19 2017 MEZ002-005-006-010-012-015-018-020-021-024-026-027-029-190700- MAINE CITY SKY/WX TMP DP RH WIND PRES REMARKS PORTLAND CLOUDY 60 59 96 VRB6 30.19F 6HR MIN TEMP: 59; 6HR MAX TEMP: 60; SANFORD FOG 60 60 100 NE6 30.19F VSB 1/2 BAR HARBOR FOG 58 58 100 NE3 30.22F VSB 3/4 WISCASSET FOG 61 60 97 CALM 30.20F VSB 1 6HR MIN TEMP: 60; 6HR MAX TEMP: 63; ROCKLAND CLOUDY 59 59 100 NE6 30.20F FOG FRYEBURG CLOUDY 62 62 100 SE5 30.20F 6HR MIN TEMP: 62; 6HR MAX TEMP: 66; 6HR PCP: TRACE; LEWISTONAUBURN CLOUDY 60 59 96 NE3 30.20F AUGUSTA CLOUDY 59 59 100 CALM 30.21F 6HR MIN TEMP: 59; 6HR MAX TEMP: 62; 6HR PCP: TRACE; WATERVILLE CLOUDY 60 60 100 CALM 30.19F BANGOR CLOUDY 61 58 90 CALM 30.22F 6HR MIN TEMP: 60; 6HR MAX TEMP: 62; 6HR PCP: 0.03; GREENVILLE N/A 59 59 100 SE5 30.19F 6HR MIN TEMP: 59; 6HR MAX TEMP: 61; 6HR PCP: 0.01; MILLINOCKET CLOUDY 60 60 100 VRB6 30.22F 6HR MIN TEMP: 60; 6HR MAX TEMP: 64; HOULTON CLOUDY 59 59 100 S3 30.20F FOG 6HR MIN TEMP: 59; 6HR MAX TEMP: 63; PRESQUE ISLE CLOUDY 59 58 96 SE7 30.21F 6HR MIN TEMP: 59; 6HR MAX TEMP: 65; FRENCHVILLE CLOUDY 60 58 92 SE12 30.18S 6HR MIN TEMP: 60; 6HR MAX TEMP: 62; CARIBOU CLOUDY 61 58 90 SE6 30.20S FOG 6HR MIN TEMP: 61; 6HR MAX TEMP: 65; $$ NHZ002-005-008-009-011-012-014-190700- NEW HAMPSHIRE CITY SKY/WX TMP DP RH WIND PRES REMARKS PORTSMOUTH FOG 62 62 100 NE7 30.16F VSB 1/2 ROCHESTER FOG 61 59 93 NE5 30.18S VSB 1/2 6HR MIN TEMP: 61; 6HR MAX TEMP: 64; NASHUA CLOUDY 64 63 96 NE5 30.17F MANCHESTER CLOUDY 63 63 100 NE7 30.15F FOG 6HR MIN TEMP: 63; 6HR MAX TEMP: 67; CONCORD CLOUDY 64 62 93 CALM 30.17F 6HR MIN TEMP: 64; 6HR MAX TEMP: 67; LACONIA CLOUDY 64 62 93 NE6 30.18F PLYMOUTH CLOUDY 64 62 93 CALM 30.18S BERLIN PTCLDY 53 50 89 CALM 30.19F 6HR MIN TEMP: 53; 6HR MAX TEMP: 64; WHITEFIELD FOG 55 52 89 CALM 30.19S VSB 1/2 6HR MIN TEMP: 55; 6HR MAX TEMP: 67; 6HR PCP: TRACE; JAFFREY CLOUDY 64 64 100 CALM 30.18F 6HR MIN TEMP: 64; 6HR MAX TEMP: 67; 6HR PCP: 0.01; KEENE CLOUDY 65 63 93 CALM 30.16F LEBANON CLOUDY 67 63 87 NE3 30.15F 6HR MIN TEMP: 64; 6HR MAX TEMP: 68; MT WASHINGTON MOCLDY 52 36 54 SE9 N/A 6HR MIN TEMP: 51; 6HR MAX TEMP: 53; $$ VTZ005-007-008-190700- VERMONT CITY SKY/WX TMP DP RH WIND PRES REMARKS ST JOHNSBURY N/A 62 62 100 MISG 30.16F MONTPELIER PTCLDY 57 57 100 CALM 30.21F BURLINGTON MOCLDY 68 62 81 SE6 30.11F $$ MAZ007-012-024-CTZ003-RIZ002-NYZ038-NYZ072-190700- SOUTHERN NEW ENGLAND AND NY CITY SKY/WX TMP DP RH WIND PRES REMARKS BOSTON FOG 63 63 100 NE7 30.15F VSB 1/4 WORCESTER FOG 61 60 97 NE6 30.16F VSB 1/4 NANTUCKET FOG 64 64 100 NE16 30.07F VSB 1/2 PROVIDENCE CLOUDY 66 66 100 NE9 30.12F HARTFORD CLOUDY 66 65 96 N6 30.12S ALBANY MOCLDY 63 59 87 CALM 30.13S NEW YORK CITY CLOUDY 71 68 90 NE16 30.05F $$ ANZ081-ANZ082-ANZ150-NHZ014-MEZ023>029-190700- COASTAL MARINE OBSERVATIONS STATION/POSITION TIME TEMP WIND PRES WAVE AIR SEA DIR/SP/G HT/PER (UTC) (F) (DEG/KT/KT) (MB) (FT/S) MOUNT DESERT ROC 0600 360/ 10/ 11 1022.8F MATINICUS ROCK 0500 56 50/ 12/ 13 1022.6R ISLE OF SHOALS 0500 62 40/ 10/ 11 1021.5F JEFFREYS LEDGE 0536 63 N/A 4/13 GEORGES BANK BUO 0450 71 69 1018.4 8/11 $$ .............KEY.............. WCI - WIND CHILL TC - TEMPERATURE IN CELSIUS VSB - VISIBILITY IN MILES HX - HEAT INDEX FAIR- INDICATES FEW OR NO CLOUDS BELOW 12,000 FT, WITH NO SIGNIFICANT WEATHER AND/OR OBSTRUCTIONS TO VISIBILITY.

USA.gov is the U.S. government's official web portal to all federal, state and local government web resources and services.